User: anonymous   Login
Location: Fishcreek Rd Observing Site
(41.1865°N, 81.4271°W)
Time: 14:11:10
(UTC-04:00)
Language:

Iridium 75 - Orbit

View from above orbital plane
View from above orbital plane
View from above satellite
View from above satellite

Ground track
Ground track

The orbit data is extracted from the following two-line orbital elements,

1 25346U 98032E   15243.26001133  .00000250  00000-0  82313-4 0  9991
2 25346 086.3999 138.3222 0002154 081.5037 035.4095 14.34223680905657
Epoch (UTC): 31 August 2015 06:14:24
Eccentricity: 0.0002154
inclination: 86.3999°
perigee height: 776 km
apogee height: 779 km
right ascension of ascending node: 138.3222°
argument of perigee: 81.5037°
revolutions per day: 14.34223680
mean anomaly at epoch: 35.4095°
orbit number at epoch: 90565

The dashed part of the orbit path shows where the satellite is in the earth's shadow,  

DLR